Location: Newark
(34.9500°N, 139.9667°E)
Time: 14:23:05
(UTC+00:00)

Transit 2A - Pass Details

Date: 08 December 2019
Orbit: 601 x 958 km, 66.7° (Epoch: 22 January)

Event Time Altitude Azimuth Distance (km) Brightness Sun altitude
Rises 22:58:56 0° 249° (WSW) 3,103 8.9 13.3°
Reaches altitude 10° 23:02:19 10° 272° (W) 2,115 7.9 13.8°
Maximum altitude 23:05:02 15° 308° (NW) 1,752 7.4 14.2°
Drops below altitude 10° 23:07:40 10° 343° (NNW) 2,025 7.7 14.6°
Sets 23:10:49 0° 7° (N) 2,894 8.7 15.1°
